• In Hungary
  • List of Countries
  • For 7 days
  • Water Temperature
  • Satellite Maps
  • Weather Map
  • News
  • Weather Widgets
  • user-avatar
    Login

    Hourly Weather Mansa

    Today, 24 September, Sunday

    Time Temperature Precipitation Wind Pressure Humidity
    00:00 +24°C° 0 mm 2 mps 661 mmHg 31%
    01:00 +23°C° 0 mm 2 mps 661 mmHg 33%
    02:00 +23°C° 0 mm 2 mps 661 mmHg 35%
    03:00 +21°C° 0 mm 2 mps 661 mmHg 37%
    04:00 +21°C° 0 mm 2 mps 661 mmHg 39%
    05:00 +20°C° 0 mm 2 mps 661 mmHg 41%
    06:00 +22°C° 0 mm 3 mps 662 mmHg 39%
    07:00 +25°C° 0 mm 3 mps 662 mmHg 37%
    08:00 +26°C° 0 mm 4 mps 663 mmHg 34%
    09:00 +29°C° 0 mm 4 mps 663 mmHg 30%
    10:00 +32°C° 0 mm 4 mps 663 mmHg 26%
    11:00 +34°C° 0 mm 4 mps 664 mmHg 21%
    12:00 +34°C° 0 mm 4 mps 663 mmHg 20%
    13:00 +35°C° 0 mm 4 mps 662 mmHg 18%
    14:00 +36°C° 0 mm 4 mps 662 mmHg 16%
    15:00 +35°C° 0 mm 4 mps 661 mmHg 17%
    16:00 +35°C° 0 mm 3 mps 661 mmHg 17%
    17:00 +34°C° 0 mm 3 mps 660 mmHg 18%
    18:00 +33°C° 0 mm 3 mps 660 mmHg 20%
    19:00 +30°C° 0 mm 2 mps 660 mmHg 22%
    20:00 +28°C° 0 mm 2 mps 660 mmHg 24%
    21:00 +27°C° 0 mm 2 mps 660 mmHg 25%
    22:00 +27°C° 0 mm 2 mps 661 mmHg 25%
    23:00 +26°C° 0 mm 2 mps 661 mmHg 26%

    Tomorrow, 25 September, Monday

    Time Temperature Precipitation Wind Pressure Humidity
    00:00 +25°C° 0 mm 3 mps 660 mmHg 26%
    01:00 +25°C° 0 mm 3 mps 660 mmHg 27%
    02:00 +24°C° 0 mm 3 mps 660 mmHg 27%
    03:00 +22°C° 0 mm 3 mps 660 mmHg 29%
    04:00 +22°C° 0 mm 3 mps 660 mmHg 31%
    05:00 +21°C° 0 mm 3 mps 660 mmHg 34%
    06:00 +22°C° 0 mm 3 mps 660 mmHg 34%
    07:00 +25°C° 0 mm 4 mps 661 mmHg 34%
    08:00 +26°C° 0 mm 4 mps 662 mmHg 35%
    09:00 +29°C° 0 mm 4 mps 662 mmHg 29%
    10:00 +32°C° 0 mm 4 mps 662 mmHg 23%
    11:00 +34°C° 0 mm 3 mps 663 mmHg 18%
    12:00 +35°C° 0 mm 3 mps 662 mmHg 16%
    13:00 +36°C° 0 mm 3 mps 661 mmHg 14%
    14:00 +37°C° 0 mm 3 mps 660 mmHg 12%
    15:00 +36°C° 0 mm 3 mps 659 mmHg 12%
    16:00 +36°C° 0 mm 2 mps 659 mmHg 12%
    17:00 +35°C° 0 mm 2 mps 658 mmHg 12%
    18:00 +32°C° 0 mm 2 mps 658 mmHg 14%
    19:00 +29°C° 0 mm 1 mps 658 mmHg 16%
    20:00 +27°C° 0 mm 1 mps 658 mmHg 18%
    21:00 +26°C° 0 mm 1 mps 658 mmHg 19%
    22:00 +26°C° 0 mm 1 mps 659 mmHg 20%
    23:00 +25°C° 0 mm 2 mps 659 mmHg 21%

    Day after tomorrow, 26 September, Tuesday

    Time Temperature Precipitation Wind Pressure Humidity
    00:00 +24°C° 0 mm 2 mps 658 mmHg 24%
    01:00 +24°C° 0 mm 2 mps 658 mmHg 27%
    02:00 +23°C° 0 mm 2 mps 657 mmHg 30%
    03:00 +21°C° 0 mm 2 mps 657 mmHg 32%
    04:00 +21°C° 0 mm 2 mps 657 mmHg 35%
    05:00 +20°C° 0 mm 2 mps 657 mmHg 37%
    06:00 +24°C° 0 mm 2 mps 659 mmHg 34%
    07:00 +26°C° 0 mm 3 mps 660 mmHg 31%
    08:00 +28°C° 0 mm 3 mps 661 mmHg 28%
    09:00 +31°C° 0 mm 3 mps 661 mmHg 24%
    10:00 +34°C° 0 mm 3 mps 661 mmHg 19%
    11:00 +37°C° 0 mm 2 mps 662 mmHg 15%
    12:00 +39°C° 0 mm 2 mps 661 mmHg 13%
    13:00 +40°C° 0 mm 1 mps 660 mmHg 12%
    14:00 +42°C° 0 mm 1 mps 660 mmHg 10%
    15:00 +40°C° 0 mm 1 mps 659 mmHg 11%
    16:00 +37°C° 0 mm 1 mps 658 mmHg 12%
    17:00 +35°C° 0 mm 1 mps 657 mmHg 12%
    18:00 +33°C° 0 mm 1 mps 658 mmHg 14%
    19:00 +32°C° 0 mm 1 mps 658 mmHg 16%
    20:00 +30°C° 0 mm 1 mps 658 mmHg 17%
    21:00 +29°C° 0 mm 1 mps 658 mmHg 17%
    22:00 +29°C° 0 mm 1 mps 659 mmHg 18%
    23:00 +28°C° 0 mm 1 mps 659 mmHg 18%

    27 September, Wednesday

    Time Temperature Precipitation Wind Pressure Humidity
    00:00 +27°C° 0 mm 1 mps 658 mmHg 20%
    01:00 +26°C° 0 mm 1 mps 658 mmHg 22%
    02:00 +25°C° 0 mm 1 mps 657 mmHg 24%
    03:00 +24°C° 0 mm 1 mps 657 mmHg 25%
    04:00 +24°C° 0 mm 1 mps 658 mmHg 27%
    05:00 +23°C° 0 mm 1 mps 658 mmHg 28%
    06:00 +26°C° 0 mm 1 mps 659 mmHg 27%
    07:00 +28°C° 0 mm 1 mps 660 mmHg 26%
    08:00 +30°C° 0 mm 1 mps 661 mmHg 25%
    09:00 +33°C° 0 mm 1 mps 662 mmHg 23%
    10:00 +35°C° 0 mm 1 mps 662 mmHg 20%
    11:00 +39°C° 0 mm 1 mps 662 mmHg 18%
    12:00 +39°C° 0 mm 1 mps 661 mmHg 17%
    13:00 +37°C° 0 mm 1 mps 660 mmHg 16%
    14:00 +38°C° 0 mm 2 mps 659 mmHg 15%
    15:00 +37°C° 0 mm 2 mps 659 mmHg 16%
    16:00 +36°C° 0 mm 1 mps 659 mmHg 16%
    17:00 +35°C° 0 mm 1 mps 659 mmHg 16%
    18:00 +33°C° 0 mm 1 mps 659 mmHg 18%
    19:00 +31°C° 0 mm 1 mps 659 mmHg 20%
    20:00 +30°C° 0 mm 1 mps 659 mmHg 22%
    21:00 +29°C° 0 mm 1 mps 659 mmHg 23%
    22:00 +29°C° 0 mm 1 mps 659 mmHg 24%
    23:00 +28°C° 0 mm 1 mps 659 mmHg 24%

    28 September, Thursday

    Time Temperature Precipitation Wind Pressure Humidity
    00:00 +28°C° 0 mm 1 mps 659 mmHg 25%
    01:00 +27°C° 0 mm 2 mps 659 mmHg 26%
    02:00 +27°C° 0 mm 2 mps 659 mmHg 27%
    03:00 +26°C° 0 mm 2 mps 659 mmHg 30%
    04:00 +25°C° 0 mm 2 mps 659 mmHg 32%
    05:00 +24°C° 0 mm 2 mps 659 mmHg 35%
    06:00 +25°C° 0 mm 3 mps 660 mmHg 34%
    07:00 +27°C° 0 mm 4 mps 661 mmHg 33%
    08:00 +28°C° 0 mm 4 mps 662 mmHg 32%
    09:00 +32°C° 0 mm 4 mps 662 mmHg 27%
    10:00 +34°C° 0 mm 4 mps 662 mmHg 23%
    11:00 +36°C° 0 mm 4 mps 662 mmHg 18%
    12:00 +37°C° 0 mm 4 mps 661 mmHg 17%
    13:00 +37°C° 0 mm 3 mps 661 mmHg 15%
    14:00 +38°C° 0 mm 3 mps 660 mmHg 14%
    15:00 +37°C° 0 mm 3 mps 660 mmHg 14%
    16:00 +36°C° 0 mm 2 mps 660 mmHg 14%
    17:00 +36°C° 0 mm 2 mps 660 mmHg 15%
    18:00 +34°C° 0 mm 2 mps 660 mmHg 17%
    19:00 +33°C° 0 mm 3 mps 660 mmHg 18%
    20:00 +30°C° 0 mm 3 mps 660 mmHg 20%
    21:00 +29°C° 0 mm 3 mps 660 mmHg 22%
    22:00 +29°C° 0 mm 4 mps 660 mmHg 24%
    23:00 +28°C° 0 mm 5 mps 660 mmHg 26%

    29 September, Friday

    Time Temperature Precipitation Wind Pressure Humidity
    00:00 +27°C° 0 mm 4 mps 660 mmHg 28%
    01:00 +26°C° 0 mm 4 mps 660 mmHg 29%
    02:00 +25°C° 0 mm 4 mps 660 mmHg 31%
    03:00 +25°C° 0 mm 4 mps 660 mmHg 33%
    04:00 +24°C° 0 mm 3 mps 660 mmHg 35%
    05:00 +24°C° 0 mm 3 mps 660 mmHg 38%
    06:00 +25°C° 0 mm 4 mps 661 mmHg 36%
    07:00 +26°C° 0 mm 5 mps 662 mmHg 34%
    08:00 +27°C° 0 mm 6 mps 662 mmHg 33%
    09:00 +29°C° 0 mm 5 mps 662 mmHg 29%
    10:00 +32°C° 0 mm 5 mps 662 mmHg 26%
    11:00 +33°C° 0 mm 5 mps 662 mmHg 23%
    12:00 +34°C° 0 mm 4 mps 661 mmHg 20%
    13:00 +35°C° 0 mm 4 mps 661 mmHg 18%
    14:00 +36°C° 0 mm 4 mps 660 mmHg 15%
    15:00 +36°C° 0 mm 3 mps 660 mmHg 15%
    16:00 +35°C° 0 mm 3 mps 660 mmHg 16%
    17:00 +34°C° 0 mm 3 mps 659 mmHg 16%
    18:00 +33°C° 0 mm 3 mps 660 mmHg 18%
    19:00 +30°C° 0 mm 2 mps 660 mmHg 20%
    20:00 +29°C° 0 mm 2 mps 660 mmHg 22%
    21:00 +28°C° 0 mm 3 mps 660 mmHg 27%
    22:00 +27°C° 0 mm 3 mps 660 mmHg 31%
    23:00 +27°C° 0 mm 4 mps 660 mmHg 36%
    Show more